Location: Long Geng
(2.6167°N, 114.1333°E)
Time: 14:28:58
(UTC+00:00)

BLOCK DM-SL R/B - Pass Details

Date: 29 September 2021
Orbit: 645 x 35621 km, 0.3° (Epoch: 19 October)

Event Time Altitude Azimuth Distance (km) Brightness Sun altitude
Exits shadow 20:13:30 65° 229° (SW) 1,341 4.4 -30.1°
Maximum altitude 20:14:24 75° 176° (S) 1,415 4.7 -29.9°
Drops below altitude 10° 20:37:35 10° 92° (E) 10,258 10.3 -24.1°
Sets 21:09:35 0° 91° (E) 19,180 12.5 -16.1°
